Location: Santa Maria di Sala
(45.5070°N, 12.0300°E)
Time: 07:17:27
(UTC+02:00)

STRAND 1 - Pass Details

Date: 05 March 2024
Orbit: 764 x 779 km, 98.4° (Epoch: 16 April)

Event Time Altitude Azimuth Distance (km) Brightness Sun altitude
Rises 05:21:37 0° 154° (SSE) 3,250 ? -15.0°
Reaches altitude 10° 05:23:56 10° 151° (SSE) 2,327 ? -14.6°
Maximum altitude 05:29:00 61° 72° (ENE) 885 ? -13.7°
Drops below altitude 10° 05:34:04 10° 353° (N) 2,340 ? -12.8°
Sets 05:36:25 0° 350° (N) 3,270 ? -12.4°
